Overview Statistics Trail Chart Weather Telemetry Raw packets
 

This is the latest recevied weather packets stored in our database for station/object K9COE-11. If no packets are shown the sender has not sent any weather packets the latest 10 day(s).

<< 14 15 16 17 18 19 20 >>
Time Temp. Humidity Pressure Rain* Wind** Luminosity Snow
1788635309 29.44° C 23% - 0 mm - - -
1788634902 29.44° C 24% - 0 mm - - -
1788634769 29.44° C 23% - 0 mm - - -
1788634492 28.89° C 24% - 0 mm - - -
1788634360 29.44° C 22% - 0 mm - - -
1788634228 29.44° C 24% - 0 mm - - -
1788634090 28.89° C 24% - 0 mm - - -
1788633957 29.44° C 24% - 0 mm - - -
1788633819 28.89° C 25% - 0 mm - - -
1788633681 28.89° C 23% - 0 mm - - -
1788633411 28.89° C 25% - 0 mm - - -
1788633272 28.89° C 23% - 0 mm - - -
1788633140 28.89° C 24% - 0 mm - - -
1788633008 28.89° C 23% - 0 mm - - -
1788632870 28.33° C 23% - 0 mm - - -
1788632743 28.33° C 23% - 0 mm - - -
1788632738 28.33° C 23% - 0 mm - - -
1788632600 28.33° C 23% - 0 mm - - -
1788632461 28.33° C 24% - 0 mm - - -
1788632329 27.78° C 22% - 0 mm - - -
1788632197 28.33° C 22% - 0 mm - - -
1788632059 28.33° C 23% - 0 mm - - -
1788631921 28.33° C 27% - 0 mm - - -
1788631782 28.33° C 27% - 0 mm - - -
1788631650 28.33° C 26% - 0 mm - - -

* Rain latest 24 hours (hover to see other rain measurements)
** Current wind speed in m/s (hover to see current wind gust speed)